Location: Newark
(48.4281°N, 5.9947°E)
Time: 13:53:25
(UTC+00:00)

OTV 5 (USA 277) - Pass Details

Date: 29 October 2019
Orbit: 310 x 324 km, 54.5° (Epoch: 17 October)

Event Time Altitude Azimuth Distance (km) Brightness Sun altitude
Rises 18:51:02 0° 240° (WSW) 2,058 ? -25.2°
Reaches altitude 10° 18:53:00 10° 241° (WSW) 1,232 ? -25.5°
Enters shadow 18:53:10 11° 241° (WSW) 1,157 ? -25.5°
